Time,TemperatureF,DewpointF,PressureIn,WindDirection,WindDirectionDegrees,WindSpeedMPH,WindSpeedGustMPH,Humidity,HourlyPrecipIn,Conditions,Clouds,dailyrainin,SoftwareType,DateUTC
2013-05-24 00:02:00,81.0,-99.9,30.03,WSW,252,7.0,10.0,-999,-99.99,,,-99.99,,2013-05-24 05:02:00,
2013-05-24 00:12:00,81.0,-99.9,30.03,West,260,6.0,9.0,-999,-99.99,,,-99.99,,2013-05-24 05:12:00,
2013-05-24 00:22:00,81.0,-99.9,30.03,North,-999,-999.0,-999.0,-999,-99.99,,,-99.99,,2013-05-24 05:22:00,
2013-05-24 00:32:00,80.0,-99.9,30.03,WNW,284,4.0,5.0,-999,-99.99,,,-99.99,,2013-05-24 05:32:00,
2013-05-24 00:42:00,79.0,-99.9,30.03,West,279,3.0,3.0,-999,-99.99,,,-99.99,,2013-05-24 05:42:00,
2013-05-24 00:52:00,79.0,-99.9,30.03,West,280,4.0,5.0,-999,-99.99,,,-99.99,,2013-05-24 05:52:00,
2013-05-24 01:02:00,79.0,-99.9,30.02,WNW,286,3.0,4.0,-999,-99.99,,,-99.99,,2013-05-24 06:02:00,
2013-05-24 01:12:00,79.0,-99.9,30.02,WNW,290,3.0,4.0,-999,-99.99,,,-99.99,,2013-05-24 06:12:00,
2013-05-24 01:22:00,78.0,-99.9,30.03,North,-999,-999.0,-999.0,-999,-99.99,,,-99.99,,2013-05-24 06:22:00,
2013-05-24 01:32:00,78.0,-99.9,30.03,WNW,288,4.0,5.0,-999,-99.99,,,-99.99,,2013-05-24 06:32:00,
2013-05-24 01:42:00,78.0,-99.9,30.03,WNW,291,4.0,6.0,-999,-99.99,,,-99.99,,2013-05-24 06:42:00,
2013-05-24 01:52:00,78.0,-99.9,30.02,North,-999,-999.0,-999.0,-999,-99.99,,,-99.99,,2013-05-24 06:52:00,
2013-05-24 02:02:00,78.0,-99.9,30.02,WNW,303,3.0,4.0,-999,-99.99,,,-99.99,,2013-05-24 07:02:00,
2013-05-24 02:11:00,78.0,-99.9,30.02,NW,305,3.0,4.0,-999,-99.99,,,-99.99,,2013-05-24 07:11:00,
2013-05-24 02:22:00,78.0,-99.9,30.02,NW,314,5.0,6.0,-999,-99.99,,,-99.99,,2013-05-24 07:22:00,
2013-05-24 02:32:00,78.0,-99.9,30.02,NW,319,4.0,5.0,-999,-99.99,,,-99.99,,2013-05-24 07:32:00,
2013-05-24 02:42:00,78.0,-99.9,30.02,NNW,344,3.0,4.0,-999,-99.99,,,-99.99,,2013-05-24 07:42:00,
2013-05-24 02:52:00,77.0,-99.9,30.02,NNW,335,3.0,3.0,-999,-99.99,,,-99.99,,2013-05-24 07:52:00,
2013-05-24 03:02:00,77.0,-99.9,30.02,NW,326,3.0,3.0,-999,-99.99,,,-99.99,,2013-05-24 08:02:00,
2013-05-24 03:11:00,77.0,-99.9,30.02,NW,318,3.0,4.0,-999,-99.99,,,-99.99,,2013-05-24 08:11:00,
2013-05-24 03:22:00,77.0,-99.9,30.02,NNW,339,4.0,4.0,-999,-99.99,,,-99.99,,2013-05-24 08:22:00,
2013-05-24 03:33:00,77.0,-99.9,30.02,NNW,330,3.0,3.0,-999,-99.99,,,-99.99,,2013-05-24 08:33:00,
2013-05-24 03:42:00,76.0,-99.9,30.02,NW,310,1.0,1.0,-999,-99.99,,,-99.99,,2013-05-24 08:42:00,
2013-05-24 03:52:00,76.0,-99.9,30.02,NNW,341,2.0,2.0,-999,-99.99,,,-99.99,,2013-05-24 08:52:00,
2013-05-24 04:02:00,76.0,-99.9,30.02,NNW,342,2.0,3.0,-999,-99.99,,,-99.99,,2013-05-24 09:02:00,
2013-05-24 04:11:00,76.0,-99.9,30.02,NW,320,4.0,4.0,-999,-99.99,,,-99.99,,2013-05-24 09:11:00,
2013-05-24 04:22:00,76.0,-99.9,30.02,North,-999,-999.0,-999.0,-999,-99.99,,,-99.99,,2013-05-24 09:22:00,
2013-05-24 04:33:00,76.0,-99.9,30.02,NW,311,4.0,4.0,-999,-99.99,,,-99.99,,2013-05-24 09:33:00,
2013-05-24 04:42:00,76.0,-99.9,30.03,North,-999,-999.0,-999.0,-999,-99.99,,,-99.99,,2013-05-24 09:42:00,
2013-05-24 04:53:00,76.0,-99.9,30.03,North,-999,-999.0,-999.0,-999,-99.99,,,-99.99,,2013-05-24 09:53:00,
2013-05-24 05:03:00,75.0,-99.9,30.03,NNW,331,3.0,4.0,-999,-99.99,,,-99.99,,2013-05-24 10:03:00,
2013-05-24 05:12:00,75.0,-99.9,30.04,NNW,330,5.0,6.0,-999,-99.99,,,-99.99,,2013-05-24 10:12:00,
2013-05-24 05:23:00,75.0,-99.9,30.04,North,-999,-999.0,-999.0,-999,-99.99,,,-99.99,,2013-05-24 10:23:00,
2013-05-24 05:33:00,75.0,-99.9,30.04,NNW,334,5.0,6.0,-999,-99.99,,,-99.99,,2013-05-24 10:33:00,
2013-05-24 05:42:00,75.0,-99.9,30.04,NNW,342,5.0,6.0,-999,-99.99,,,-99.99,,2013-05-24 10:42:00,
2013-05-24 05:53:00,75.0,-99.9,30.04,North,-999,-999.0,-999.0,-999,-99.99,,,-99.99,,2013-05-24 10:53:00,
2013-05-24 06:02:00,75.0,-99.9,30.04,NNW,334,4.0,6.0,-999,-99.99,,,-99.99,,2013-05-24 11:02:00,
2013-05-24 06:12:00,75.0,-99.9,30.04,NNW,334,3.0,4.0,-999,-99.99,,,-99.99,,2013-05-24 11:12:00,
2013-05-24 06:22:00,75.0,-99.9,30.04,North,-999,-999.0,-999.0,-999,-99.99,,,-99.99,,2013-05-24 11:22:00,
2013-05-24 06:32:00,75.0,-99.9,30.05,NNW,338,5.0,5.0,-999,-99.99,,,-99.99,,2013-05-24 11:32:00,
2013-05-24 06:42:00,74.0,-99.9,30.06,North,-999,-999.0,-999.0,-999,-99.99,,,-99.99,,2013-05-24 11:42:00,
2013-05-24 06:52:00,75.0,-99.9,30.06,NNW,344,4.0,5.0,-999,-99.99,,,-99.99,,2013-05-24 11:52:00,
2013-05-24 07:02:00,75.0,-99.9,30.07,North,-999,-999.0,-999.0,-999,-99.99,,,-99.99,,2013-05-24 12:02:00,
2013-05-24 07:12:00,75.0,-99.9,30.08,North,355,7.0,9.0,-999,-99.99,,,-99.99,,2013-05-24 12:12:00,
2013-05-24 07:22:00,75.0,-99.9,30.08,North,-999,-999.0,-999.0,-999,-99.99,,,-99.99,,2013-05-24 12:22:00,
2013-05-24 07:33:00,75.0,-99.9,30.08,North,351,9.0,12.0,-999,-99.99,,,-99.99,,2013-05-24 12:33:00,
2013-05-24 07:42:00,75.0,-99.9,30.08,North,-999,-999.0,-999.0,-999,-99.99,,,-99.99,,2013-05-24 12:42:00,
2013-05-24 07:52:00,76.0,-99.9,30.09,North,358,8.0,11.0,-999,-99.99,,,-99.99,,2013-05-24 12:52:00,
2013-05-24 08:02:00,76.0,-99.9,30.09,North,0,10.0,12.0,-999,-99.99,,,-99.99,,2013-05-24 13:02:00,
2013-05-24 08:11:00,77.0,-99.9,30.09,North,8,9.0,12.0,-999,-99.99,,,-99.99,,2013-05-24 13:11:00,
2013-05-24 08:22:00,77.0,-99.9,30.09,North,-999,-999.0,-999.0,-999,-99.99,,,-99.99,,2013-05-24 13:22:00,
2013-05-24 08:32:00,78.0,-99.9,30.09,NNE,15,10.0,13.0,-999,-99.99,,,-99.99,,2013-05-24 13:32:00,
2013-05-24 08:42:00,78.0,-99.9,30.10,North,-999,-999.0,-999.0,-999,-99.99,,,-99.99,,2013-05-24 13:42:00,
2013-05-24 08:52:00,79.0,-99.9,30.10,North,9,9.0,12.0,-999,-99.99,,,-99.99,,2013-05-24 13:52:00,
2013-05-24 09:02:00,80.0,-99.9,30.10,NNE,21,10.0,14.0,-999,-99.99,,,-99.99,,2013-05-24 14:02:00,
2013-05-24 09:11:00,80.0,-99.9,30.11,NNE,25,10.0,15.0,-999,-99.99,,,-99.99,,2013-05-24 14:11:00,
2013-05-24 09:22:00,80.0,-99.9,30.11,NNE,32,10.0,13.0,-999,-99.99,,,-99.99,,2013-05-24 14:22:00,
2013-05-24 09:32:00,81.0,-99.9,30.11,NE,35,10.0,16.0,-999,-99.99,,,-99.99,,2013-05-24 14:32:00,
2013-05-24 09:42:00,81.0,-99.9,30.11,NE,43,10.0,13.0,-999,-99.99,,,-99.99,,2013-05-24 14:42:00,
2013-05-24 09:52:00,82.0,-99.9,30.11,North,-999,-999.0,-999.0,-999,-99.99,,,-99.99,,2013-05-24 14:52:00,
2013-05-24 10:02:00,82.0,-99.9,30.11,NNE,14,10.0,14.0,-999,-99.99,,,-99.99,,2013-05-24 15:02:00,
2013-05-24 10:11:00,82.0,-99.9,30.12,NNE,29,10.0,13.0,-999,-99.99,,,-99.99,,2013-05-24 15:11:00,
2013-05-24 10:22:00,82.0,-99.9,30.12,NE,35,8.0,10.0,-999,-99.99,,,-99.99,,2013-05-24 15:22:00,
2013-05-24 10:33:00,83.0,-99.9,30.12,NNE,19,6.0,10.0,-999,-99.99,,,-99.99,,2013-05-24 15:33:00,
2013-05-24 10:43:00,82.0,-99.9,30.12,North,2,10.0,12.0,-999,-99.99,,,-99.99,,2013-05-24 15:43:00,
2013-05-24 10:53:00,82.0,-99.9,30.12,North,358,11.0,13.0,-999,-99.99,,,-99.99,,2013-05-24 15:53:00,
2013-05-24 11:03:00,83.0,-99.9,30.12,North,4,10.0,14.0,-999,-99.99,,,-99.99,,2013-05-24 16:03:00,
2013-05-24 11:13:00,83.0,-99.9,30.13,North,7,9.0,13.0,-999,-99.99,,,-99.99,,2013-05-24 16:13:00,
2013-05-24 11:22:00,84.0,-99.9,30.13,NNE,13,9.0,12.0,-999,-99.99,,,-99.99,,2013-05-24 16:22:00,
2013-05-24 11:33:00,84.0,-99.9,30.13,NNE,23,7.0,12.0,-999,-99.99,,,-99.99,,2013-05-24 16:33:00,
2013-05-24 11:42:00,85.0,-99.9,30.13,NNE,25,8.0,11.0,-999,-99.99,,,-99.99,,2013-05-24 16:42:00,
2013-05-24 11:52:00,85.0,-99.9,30.14,NNE,27,8.0,11.0,-999,-99.99,,,-99.99,,2013-05-24 16:52:00,
2013-05-24 12:02:00,84.0,-99.9,30.14,NNE,27,9.0,13.0,-999,-99.99,,,-99.99,,2013-05-24 17:02:00,
2013-05-24 12:12:00,85.0,-99.9,30.13,North,7,10.0,14.0,-999,-99.99,,,-99.99,,2013-05-24 17:12:00,
2013-05-24 12:22:00,85.0,-99.9,30.13,North,-999,-999.0,-999.0,-999,-99.99,,,-99.99,,2013-05-24 17:22:00,
2013-05-24 12:32:00,84.0,-99.9,30.14,North,0,10.0,14.0,-999,-99.99,,,-99.99,,2013-05-24 17:32:00,
2013-05-24 12:42:00,85.0,-99.9,30.13,North,5,8.0,12.0,-999,-99.99,,,-99.99,,2013-05-24 17:42:00,
2013-05-24 12:52:00,86.0,-99.9,30.13,NNE,19,9.0,13.0,-999,-99.99,,,-99.99,,2013-05-24 17:52:00,
2013-05-24 13:01:00,85.0,-99.9,30.13,North,358,7.0,11.0,-999,-99.99,,,-99.99,,2013-05-24 18:01:00,
2013-05-24 13:12:00,87.0,-99.9,30.13,North,10,8.0,12.0,-999,-99.99,,,-99.99,,2013-05-24 18:12:00,
2013-05-24 13:22:00,86.0,-99.9,30.12,North,-999,-999.0,-999.0,-999,-99.99,,,-99.99,,2013-05-24 18:22:00,
2013-05-24 13:32:00,86.0,-99.9,30.12,North,353,11.0,15.0,-999,-99.99,,,-99.99,,2013-05-24 18:32:00,
2013-05-24 13:42:00,87.0,-99.9,30.12,North,355,9.0,12.0,-999,-99.99,,,-99.99,,2013-05-24 18:42:00,
2013-05-24 13:52:00,88.0,-99.9,30.12,North,-999,-999.0,-999.0,-999,-99.99,,,-99.99,,2013-05-24 18:52:00,
2013-05-24 14:02:00,86.0,-99.9,30.12,North,357,8.0,13.0,-999,-99.99,,,-99.99,,2013-05-24 19:02:00,
2013-05-24 14:11:00,86.0,-99.9,30.12,North,357,8.0,13.0,-999,-99.99,,,-99.99,,2013-05-24 19:11:00,
2013-05-24 14:22:00,88.0,-99.9,30.12,North,-999,-999.0,-999.0,-999,-99.99,,,-99.99,,2013-05-24 19:22:00,
2013-05-24 14:32:00,87.0,-99.9,30.12,NNW,333,11.0,15.0,-999,-99.99,,,-99.99,,2013-05-24 19:32:00,
2013-05-24 14:42:00,87.0,-99.9,30.12,NNW,347,11.0,17.0,-999,-99.99,,,-99.99,,2013-05-24 19:42:00,
2013-05-24 14:52:00,88.0,-99.9,30.12,North,-999,-999.0,-999.0,-999,-99.99,,,-99.99,,2013-05-24 19:52:00,
2013-05-24 15:02:00,87.0,-99.9,30.11,North,354,10.0,15.0,-999,-99.99,,,-99.99,,2013-05-24 20:02:00,
2013-05-24 15:12:00,87.0,-99.9,30.11,NNW,345,12.0,16.0,-999,-99.99,,,-99.99,,2013-05-24 20:12:00,
2013-05-24 15:22:00,87.0,-99.9,30.12,NNW,344,11.0,16.0,-999,-99.99,,,-99.99,,2013-05-24 20:22:00,
2013-05-24 15:32:00,88.0,-99.9,30.11,North,358,10.0,13.0,-999,-99.99,,,-99.99,,2013-05-24 20:32:00,
2013-05-24 15:42:00,87.0,-99.9,30.11,North,-999,-999.0,-999.0,-999,-99.99,,,-99.99,,2013-05-24 20:42:00,
2013-05-24 15:52:00,88.0,-99.9,30.11,North,-999,-999.0,-999.0,-999,-99.99,,,-99.99,,2013-05-24 20:52:00,
2013-05-24 16:01:00,88.0,-99.9,30.11,NNW,344,12.0,17.0,-999,-99.99,,,-99.99,,2013-05-24 21:01:00,
2013-05-24 16:12:00,87.0,-99.9,30.11,North,-999,-999.0,-999.0,-999,-99.99,,,-99.99,,2013-05-24 21:12:00,
2013-05-24 16:22:00,87.0,-99.9,30.10,North,-999,-999.0,-999.0,-999,-99.99,,,-99.99,,2013-05-24 21:22:00,
2013-05-24 16:33:00,88.0,-99.9,30.10,NNW,343,9.0,14.0,-999,-99.99,,,-99.99,,2013-05-24 21:33:00,
2013-05-24 16:43:00,87.0,-99.9,30.10,North,349,12.0,16.0,-999,-99.99,,,-99.99,,2013-05-24 21:43:00,
2013-05-24 16:53:00,87.0,-99.9,30.10,North,-999,-999.0,-999.0,-999,-99.99,,,-99.99,,2013-05-24 21:53:00,
2013-05-24 17:03:00,88.0,-99.9,30.09,North,1,12.0,16.0,-999,-99.99,,,-99.99,,2013-05-24 22:03:00,
2013-05-24 17:12:00,87.0,-99.9,30.09,North,-999,-999.0,-999.0,-999,-99.99,,,-99.99,,2013-05-24 22:12:00,
2013-05-24 17:22:00,87.0,-99.9,30.09,North,-999,-999.0,-999.0,-999,-99.99,,,-99.99,,2013-05-24 22:22:00,
2013-05-24 17:33:00,87.0,-99.9,30.09,North,354,11.0,14.0,-999,-99.99,,,-99.99,,2013-05-24 22:33:00,
2013-05-24 17:42:00,87.0,-99.9,30.08,North,352,11.0,14.0,-999,-99.99,,,-99.99,,2013-05-24 22:42:00,
2013-05-24 17:52:00,87.0,-99.9,30.08,North,-999,-999.0,-999.0,-999,-99.99,,,-99.99,,2013-05-24 22:52:00,
2013-05-24 18:02:00,87.0,-99.9,30.08,NNW,341,11.0,14.0,-999,-99.99,,,-99.99,,2013-05-24 23:02:00,
2013-05-24 18:11:00,87.0,-99.9,30.08,North,-999,-999.0,-999.0,-999,-99.99,,,-99.99,,2013-05-24 23:11:00,
2013-05-24 18:22:00,86.0,-99.9,30.07,NNW,341,10.0,14.0,-999,-99.99,,,-99.99,,2013-05-24 23:22:00,
2013-05-24 18:32:00,86.0,-99.9,30.07,NNW,344,11.0,14.0,-999,-99.99,,,-99.99,,2013-05-24 23:32:00,
2013-05-24 18:42:00,86.0,-99.9,30.07,NNW,345,12.0,15.0,-999,-99.99,,,-99.99,,2013-05-24 23:42:00,
2013-05-24 18:52:00,86.0,-99.9,30.07,North,356,10.0,13.0,-999,-99.99,,,-99.99,,2013-05-24 23:52:00,
2013-05-24 19:01:00,86.0,-99.9,30.07,NNW,348,11.0,13.0,-999,-99.99,,,-99.99,,2013-05-25 00:01:00,
2013-05-24 19:12:00,85.0,-99.9,30.08,North,-999,-999.0,-999.0,-999,-99.99,,,-99.99,,2013-05-25 00:12:00,
2013-05-24 19:22:00,85.0,-99.9,30.08,NNW,348,10.0,13.0,-999,-99.99,,,-99.99,,2013-05-25 00:22:00,
2013-05-24 19:32:00,85.0,-99.9,30.08,North,350,8.0,11.0,-999,-99.99,,,-99.99,,2013-05-25 00:32:00,
2013-05-24 19:42:00,84.0,-99.9,30.08,North,355,9.0,11.0,-999,-99.99,,,-99.99,,2013-05-25 00:42:00,
2013-05-24 19:52:00,83.0,-99.9,30.08,North,-999,-999.0,-999.0,-999,-99.99,,,-99.99,,2013-05-25 00:52:00,
2013-05-24 20:01:00,83.0,-99.9,30.09,North,356,8.0,10.0,-999,-99.99,,,-99.99,,2013-05-25 01:01:00,
2013-05-24 20:11:00,83.0,-99.9,30.10,North,353,7.0,9.0,-999,-99.99,,,-99.99,,2013-05-25 01:11:00,
2013-05-24 20:22:00,82.0,-99.9,30.10,North,-999,-999.0,-999.0,-999,-99.99,,,-99.99,,2013-05-25 01:22:00,
2013-05-24 20:32:00,82.0,-99.9,30.10,North,357,6.0,8.0,-999,-99.99,,,-99.99,,2013-05-25 01:32:00,
2013-05-24 20:42:00,82.0,-99.9,30.11,North,-999,-999.0,-999.0,-999,-99.99,,,-99.99,,2013-05-25 01:42:00,
2013-05-24 20:52:00,81.0,-99.9,30.11,North,-999,-999.0,-999.0,-999,-99.99,,,-99.99,,2013-05-25 01:52:00,
2013-05-24 21:02:00,81.0,-99.9,30.11,North,6,7.0,9.0,-999,-99.99,,,-99.99,,2013-05-25 02:02:00,
2013-05-24 21:12:00,81.0,-99.9,30.12,NNE,13,9.0,11.0,-999,-99.99,,,-99.99,,2013-05-25 02:12:00,
2013-05-24 21:22:00,80.0,-99.9,30.12,North,-999,-999.0,-999.0,-999,-99.99,,,-99.99,,2013-05-25 02:22:00,
2013-05-24 21:32:00,80.0,-99.9,30.12,NNE,18,8.0,11.0,-999,-99.99,,,-99.99,,2013-05-25 02:32:00,
2013-05-24 21:42:00,80.0,-99.9,30.12,NNE,17,8.0,12.0,-999,-99.99,,,-99.99,,2013-05-25 02:42:00,
2013-05-24 21:52:00,79.0,-99.9,30.13,NNE,15,8.0,10.0,-999,-99.99,,,-99.99,,2013-05-25 02:52:00,
2013-05-24 22:02:00,79.0,-99.9,30.13,NNE,18,7.0,10.0,-999,-99.99,,,-99.99,,2013-05-25 03:02:00,
2013-05-24 22:12:00,78.0,-99.9,30.14,NNE,23,7.0,10.0,-999,-99.99,,,-99.99,,2013-05-25 03:12:00,
2013-05-24 22:22:00,78.0,-99.9,30.14,NNE,28,7.0,11.0,-999,-99.99,,,-99.99,,2013-05-25 03:22:00,
2013-05-24 22:33:00,78.0,-99.9,30.14,NNE,32,6.0,10.0,-999,-99.99,,,-99.99,,2013-05-25 03:33:00,
2013-05-24 22:43:00,77.0,-99.9,30.15,North,-999,-999.0,-999.0,-999,-99.99,,,-99.99,,2013-05-25 03:43:00,
2013-05-24 22:53:00,77.0,-99.9,30.15,North,-999,-999.0,-999.0,-999,-99.99,,,-99.99,,2013-05-25 03:53:00,
2013-05-24 23:03:00,77.0,-99.9,30.14,NE,35,9.0,14.0,-999,-99.99,,,-99.99,,2013-05-25 04:03:00,
2013-05-24 23:13:00,77.0,-99.9,30.14,North,-999,-999.0,-999.0,-999,-99.99,,,-99.99,,2013-05-25 04:13:00,
2013-05-24 23:23:00,77.0,-99.9,30.15,North,-999,-999.0,-999.0,-999,-99.99,,,-99.99,,2013-05-25 04:23:00,
2013-05-24 23:33:00,76.0,-99.9,30.15,NE,34,7.0,10.0,-999,-99.99,,,-99.99,,2013-05-25 04:33:00,
2013-05-24 23:43:00,76.0,-99.9,30.15,North,-999,-999.0,-999.0,-999,-99.99,,,-99.99,,2013-05-25 04:43:00,
2013-05-24 23:53:00,75.0,-99.9,30.15,NNE,31,7.0,10.0,-999,-99.99,,,-99.99,,2013-05-25 04:53:00,